TimeMST,TemperatureF,Dew PointF,Humidity,Sea Level PressureIn,VisibilityMPH,Wind Direction,Wind SpeedMPH,Gust SpeedMPH,PrecipitationIn,Events,Conditions,WindDirDegrees,DateUTC
12:55 AM,10.9,5.0,77,30.09,9.0,NW,23.0,29.9,0.00,Snow,Light Snow,320,2013-01-30 07:55:00
1:55 AM,10.0,3.0,73,30.08,10.0,NW,21.9,-,0.00,,Overcast,320,2013-01-30 08:55:00
2:55 AM,8.1,1.9,76,30.08,10.0,NW,17.3,-,0.00,,Overcast,320,2013-01-30 09:55:00
3:55 AM,7.0,1.9,80,30.07,10.0,WNW,16.1,-,N/A,,Overcast,300,2013-01-30 10:55:00
4:55 AM,5.0,-0.9,76,30.06,10.0,NNW,13.8,-,N/A,,Scattered Clouds,330,2013-01-30 11:55:00
5:55 AM,5.0,-0.9,76,30.05,10.0,NW,12.7,-,N/A,,Clear,320,2013-01-30 12:55:00
6:55 AM,3.9,-2.9,73,30.05,10.0,NW,13.8,-,N/A,,Clear,310,2013-01-30 13:55:00
7:55 AM,3.9,-2.0,76,30.05,10.0,WNW,9.2,-,N/A,,Mostly Cloudy,290,2013-01-30 14:55:00
8:55 AM,5.0,-2.0,73,30.04,10.0,WNW,8.1,-,N/A,,Scattered Clouds,290,2013-01-30 15:55:00
9:55 AM,7.0,-0.9,70,30.04,10.0,NW,9.2,-,N/A,,Partly Cloudy,310,2013-01-30 16:55:00
10:55 AM,8.1,-0.0,70,30.02,10.0,NW,5.8,-,N/A,,Overcast,310,2013-01-30 17:55:00
11:53 AM,10.4,1.4,67,29.88,10.0,WNW,4.6,-,N/A,,Mostly Cloudy,290,2013-01-30 18:53:00
11:55 AM,10.0,1.9,70,29.99,10.0,WNW,4.6,-,N/A,,Mostly Cloudy,290,2013-01-30 18:55:00
12:05 PM,10.4,1.4,67,29.88,10.0,WNW,4.6,-,N/A,,Scattered Clouds,300,2013-01-30 19:05:00
12:55 PM,12.0,3.9,70,29.97,10.0,WNW,5.8,-,N/A,,Clear,300,2013-01-30 19:55:00
1:55 PM,14.0,7.0,74,29.96,8.0,WNW,6.9,-,N/A,,Overcast,300,2013-01-30 20:55:00
2:55 PM,14.0,8.1,77,29.96,8.0,NW,5.8,-,N/A,,Overcast,320,2013-01-30 21:55:00
3:55 PM,14.0,8.1,77,29.97,10.0,North,4.6,-,0.00,,Overcast,360,2013-01-30 22:55:00
4:55 PM,12.0,6.1,77,29.98,10.0,NNE,3.5,-,N/A,,Overcast,30,2013-01-30 23:55:00
5:55 PM,10.0,6.1,84,29.99,10.0,Calm,Calm,-,N/A,,Overcast,0,2013-01-31 00:55:00
6:55 PM,10.9,7.0,84,30.00,3.0,NW,3.5,-,0.00,Snow,Light Snow,320,2013-01-31 01:55:00
7:55 PM,10.0,6.1,84,30.01,9.0,WNW,3.5,-,0.00,,Overcast,290,2013-01-31 02:55:00
8:50 PM,12.0,8.1,84,30.02,2.5,NNW,5.8,-,0.00,Snow,Light Snow,330,2013-01-31 03:50:00
9:16 PM,12.2,8.6,85,29.91,3.0,North,9.2,-,0.01,Snow,Light Snow,350,2013-01-31 04:16:00
9:26 PM,12.2,8.6,85,29.90,4.0,North,9.2,-,0.01,Snow,Light Snow,350,2013-01-31 04:26:00
9:55 PM,12.0,8.1,84,30.03,6.0,North,6.9,-,0.01,Snow,Light Snow,350,2013-01-31 04:55:00
10:55 PM,10.9,7.0,84,30.04,5.0,North,8.1,-,0.01,Snow,Light Snow,360,2013-01-31 05:55:00
11:55 PM,10.9,6.1,81,30.07,3.0,North,6.9,-,0.00,Snow,Light Snow,350,2013-01-31 06:55:00